Flag for Norway Weather past 2 weeks in Ny-Ålesund, Svalbard, Norway

Now
16 °F

Cold.


Feels Like: 16 °F
Forecast: 3 / 16 °F
Wind: No wind

Location: Ny Alesund

Current Time: May 4, 2015 at 2:12:13 AM

Latest Report: May 4, 2015 at 1:00 AM


Visibility: N/A

Pressure: 29.98 "Hg

Humidity: 73%

Dew point: 8 °F

Location of Ny-ÅlesundLocation

Historic Weather in Ny-Ålesund — Graph

°F

Ny-Ålesund temperature yesterday

Maximum temperature yesterday: 24 °F (at 5:00 PM)
Minimum temperature yesterday: 11 °F (at 3:00 AM)
Average temperature yesterday: 18 °F

Past Weeks' High & Low Weather Summary

 TemperatureHumidityPressure
High29 °F (Apr 24, 8:00 PM)84% (Apr 20, 6:00 AM)30.36 "Hg (Apr 20, 6:00 AM)
Low8 °F (Apr 23, 2:00 AM)35% (Apr 25, 1:00 PM)29.35 "Hg (Apr 19, 12:00 AM)
Average19 °F60%29.94 "Hg
* Reported Midnight between Apr 18 and Apr 19 — Midnight between May 3 and May 4, Ny-Ålesund, Weather by CustomWeather, © 2015

Note: Actual official high and low records may vary slightly from our data, if they occured in-between our weather recording intervals... More about our weather records

Advertising

Ny-Ålesund weather history for previous 24 hours

 ConditionsComfort  
Time TempWeatherWind HumidityBarometerVisibility
12:00 AM
Mon, May 4
15 °FCold.1 mph72%29.98 "HgN/A
11:00 PM
Sun, May 3
18 °FCold.1 mph72%29.99 "HgN/A
10:00 PM18 °FCold.1 mph72%30.00 "HgN/A
9:00 PM19 °FCold.1 mph63%30.00 "HgN/A
8:00 PM19 °FScattered clouds.1 mph71%30.01 "Hg47 mi
7:00 PM20 °FCold.1 mph72%30.01 "HgN/A
6:00 PM20 °FCold.No wind65%30.02 "HgN/A
5:00 PM24 °FCold.1 mph54%30.02 "HgN/A
4:00 PM22 °FCold.No wind53%30.03 "HgN/A
3:00 PM23 °FCold.1 mph50%30.03 "HgN/A
2:00 PM21 °FScattered clouds.1 mph51%30.04 "Hg47 mi
1:00 PM22 °FCold.1 mph49%30.04 "HgN/A
12:00 PM23 °FCold.No wind44%30.04 "HgN/A
11:00 AM20 °FCold.1 mph50%30.05 "HgN/A
10:00 AM20 °FCold.1 mph49%30.05 "HgN/A
9:00 AM21 °FCold.No wind47%30.05 "HgN/A
8:00 AM17 °FPassing clouds.2 mph55%30.05 "Hg47 mi
7:00 AM15 °FCold.1 mph59%30.05 "HgN/A
6:00 AM15 °FCold.1 mph60%30.06 "HgN/A
5:00 AM13 °FCold.6 mph68%30.06 "HgN/A
4:00 AM14 °FCold.2 mph62%30.06 "HgN/A
3:00 AM11 °FCold.2 mph67%30.06 "HgN/A
2:00 AM13 °FCold.No wind63%30.07 "HgN/A
Weather by CustomWeather, © 2015

See weather overviewHow to use our weather pages